Temperature
14 14 14 14 14 14 14 14 14 14 14 14 14 15 15 15 15 15 15 15 15 15 15 15 15 16 16 16 16 16 16 16 16 16 16 16 16 16
14 14 14 14 14 14 14 14 14 14 14 14 14 14 14 14 14 14 14 14 15 15 15 15 15 15 15 15 15 15 16 16 15 15 15 15 15 15
14 14 14 14 14 14 14 14 14 14 14 14 14 14 14 14 14 14 14 14 14 14 15 15 15 15 15 15 15 15 15 15 15 15 15 15 15 15
14 14 14 14 14 14 14 14 14 14 14 14 14 14 14 14 14 14 14 14 14 14 14 14 14 15 15 15 15 15 15 15 15 15 15 15 15 15
14 14 14 14 14 14 14 14 14 13 13 13 14 14 14 14 14 14 14 14 14 14 14 14 14 14 14 14 14 14 14 14 14 14 14 14 14 14
14 14 14 14 14 14 14 14 13 13 13 13 13 13 13 13 13 13 14 14 14 14 14 14 14 14 14 14 14 14 14 14 14 14 14 14 14 14
14 14 14 14 14 14 14 14 13 13 13 13 13 13 13 13 13 13 13 13 13 13 13 13 13 14 14 14 14 14 14 14 14 14 14 14 14 14
14 14 14 14 14 14 14 13 13 13 13 13 13 13 13 13 13 13 13 13 13 13 13 13 13 13 13 13 13 13 13 13 13 13 13 13 13 13
14 14 14 14 14 14 13 13 13 13 13 13 13 13 13 13 13 13 13 13 13 13 13 13 13 13 13 13 13 13 13 13 13 13 13 13 13 13
13 13 13 14 13 13 13 13 13 13 13 13 13 13 13 13 13 13 13 13 13 13 13 13 13 13 13 12 12 12 12 12 12 12 12 12 12 12
13 13 13 13 13 13 13 13 13 13 13 13 13 13 13 13 13 12 13 12 12 13 12 12 12 12 12 12 12 12 12 12 12 12 12 12 12 12
13 13 13 13 13 13 13 13 13 13 13 12 12 12 13 13 12 12 12 12 12 12 12 12 12 12 12 12 12 12 11 11 11 11 11 11 11 11
12 12 12 12 12 12 12 12 12 12 12 12 12 12 12 12 12 12 12 12 12 12 12 12 12 12 11 11 11 11 11 11 11 11 11 11 11 11
12 12 12 12 12 12 12 12 12 12 12 12 12 12 12 12 12 12 12 12 12 12 12 12 12 12 11 11 11 11 11 11 11 11 10 10 10 10
11 11 11 11 11 11 11 11 11 11 11 11 11 11 11 11 11 11 11 11 11 11 11 11 11 11 11 11 11 11 11 10 10 10 10 10 10 10
11 11 11 11 11 11 11 11 11 11 11 11 11 11 11 11 11 11 11 11 11 11 11 11 11 11 11 11 11 10 10 10 10 10 10 10 10 9
10 10 10 10 10 10 10 10 10 10 10 10 11 11 11 10 10 10 11 10 11 11 11 11 11 10 10 10 10 10 10 10 10 10 9 9 9 9
9 10 10 10 10 10 10 10 10 10 10 10 10 10 10 10 10 10 10 10 10 10 10 10 10 10 10 10 10 10 10 10 9 9 9 9 9 9
9 9 9 9 9 9 9 9 9 9 9 9 9 9 9 10 10 10 10 10 10 10 10 10 10 9 9 9 9 9 9 9 9 9 9 9 9 8
8 8 8 8 8 9 9 9 9 9 9 9 9 9 9 9 9 9 9 9 9 9 9 9 9 9 9 9 9 9 9 9 9 8 8 8 8 8
8 8 8 8 8 8 8 8 8 8 8 8 8 8 8 8 8 9 9 9 9 9 9 9 9 9 9 9 8 8 8 8 8 8 8 8 8 7
7 7 7 7 7 7 7 7 7 8 8 8 8 8 8 8 8 8 8 8 8 8 8 8 8 8 8 8 8 8 8 8 7 7 7 7 7 7
6 6 6 6 6 6 7 7 7 7 7 7 7 7 7 7 7 7 8 8 8 8 8 8 8 8 8 8 8 8 7 7 7 7 7 6 6 6
Wind_Speed
1 1 1 1 1 2 2 3 3 1 2 3 2 2 1 3 4 5 5 7 8 8 8 8 8 7 8 9 9 10 10 10 10 11 11 11 10 10
1 1 1 1 1 1 2 2 3 4 2 2 2 2 2 2 4 5 5 6 8 8 8 9 8 8 8 9 9 9 9 9 9 9 10 10 10 10
2 1 2 2 1 1 1 1 2 3 3 2 2 2 1 2 1 2 4 3 4 7 8 8 8 8 9 9 9 9 9 9 10 10 10 10 9 9
2 2 3 2 1 1 1 1 2 3 3 3 2 1 2 2 2 2 2 3 3 5 7 7 8 8 9 9 9 9 9 9 10 10 10 10 10 9
2 2 3 1 2 1 1 2 2 2 2 3 2 2 2 1 1 1 1 1 2 3 4 5 6 8 7 8 8 8 9 9 9 10 10 9 9 9
3 3 3 3 3 3 2 2 2 2 2 2 2 2 2 1 1 1 1 1 1 1 2 2 3 5 7 7 8 8 9 9 9 9 9 9 9 8
3 3 3 3 4 3 3 3 3 2 2 2 2 2 2 1 2 2 2 1 1 1 1 1 2 2 3 5 7 9 9 9 10 9 9 9 8 7
4 4 4 3 3 4 4 4 5 4 4 3 3 4 4 4 3 3 3 2 2 2 3 2 2 2 2 4 7 9 10 10 10 10 10 9 8 7
4 4 4 3 3 3 4 4 5 7 7 5 5 6 5 5 5 4 4 4 4 3 3 3 2 3 2 4 8 9 10 10 10 10 10 9 8 7
4 4 4 5 4 4 3 3 4 5 6 6 6 7 6 5 6 6 5 4 2 2 3 3 3 3 2 2 6 8 10 10 10 10 10 10 9 8
4 4 4 5 6 4 3 4 5 5 6 6 7 7 7 7 5 3 3 3 3 3 2 3 2 2 1 2 3 7 8 9 9 10 9 9 8 7
4 5 6 6 6 5 3 4 6 6 4 3 4 4 4 4 5 5 6 5 3 3 3 3 3 3 1 1 1 3 5 6 8 8 9 9 9 6
4 4 5 8 8 7 5 5 8 7 4 4 4 3 3 3 3 3 5 6 5 4 5 4 3 3 3 2 1 2 3 3 4 4 7 8 9 7
6 6 6 10 10 9 7 8 9 6 3 3 3 4 4 4 4 3 3 4 4 5 6 5 4 5 4 3 2 2 2 2 3 3 3 5 6 6
6 9 10 11 9 8 9 10 7 4 4 4 5 5 5 5 3 2 2 2 1 1 4 4 4 4 4 4 3 3 2 2 3 3 3 3 4 3
6 8 9 10 8 8 7 6 5 5 5 6 6 5 3 3 3 3 3 2 2 1 1 2 5 5 4 3 4 4 3 4 3 3 3 2 2 4
5 4 3 4 5 5 5 5 4 4 5 5 5 4 4 4 4 3 3 3 4 4 3 0 1 2 3 4 4 4 4 3 3 4 4 3 2 3
5 4 6 6 7 7 7 6 5 6 6 5 5 5 5 6 5 3 3 4 5 5 5 4 3 2 1 1 2 5 4 4 3 4 3 4 3 3
5 6 7 7 8 7 7 7 7 7 6 6 6 6 6 6 5 5 5 4 5 5 4 4 5 5 5 5 3 3 5 4 4 3 3 3 4 4
5 7 7 7 7 8 8 8 7 6 6 7 7 7 7 6 6 6 6 6 6 5 4 4 5 6 8 7 4 2 4 5 5 4 3 1 1 0
7 7 7 7 7 8 8 8 8 7 7 7 8 8 7 7 7 7 7 8 7 6 7 7 6 6 3 3 2 2 1 3 5 5 4 3 2 1
8 8 8 8 8 8 8 7 7 7 7 8 8 7 7 6 7 7 7 7 7 7 7 5 5 4 3 5 5 5 3 1 1 3 5 6 5 6
8 8 8 8 8 8 7 8 8 8 7 7 8 7 7 7 7 7 7 7 6 5 5 5 4 4 4 5 5 4 5 4 2 1 1 2 5 6
Wind_Direction
255 253 244 260 226 205 180 167 160 193 290 289 299 296 259 237 235 218 219 224 222 216 213 210 208 206 201 197 198 199 195 196 197 198 199 201 203 207
266 275 280 274 263 229 184 178 165 169 218 266 259 271 269 254 237 219 221 225 225 219 213 208 205 204 201 197 195 194 192 192 195 197 198 203 207 210
317 289 289 281 259 256 198 173 175 163 197 272 275 282 273 264 252 219 220 217 223 219 213 207 205 207 206 201 196 192 190 192 194 197 200 203 202 205
302 302 295 292 276 262 220 210 203 188 184 237 282 286 262 252 235 224 220 214 216 221 216 211 207 206 202 197 196 194 194 194 195 197 197 199 202 206
267 259 268 256 274 269 234 227 224 210 188 203 256 260 266 263 234 249 226 231 216 209 211 211 206 204 197 195 195 195 197 195 193 193 193 196 197 198
279 259 248 226 231 238 227 225 219 206 197 209 247 265 260 264 182 212 240 250 235 204 179 179 187 195 201 199 195 194 194 194 192 190 190 192 192 191
298 279 262 244 239 228 215 211 199 204 210 215 242 258 254 233 222 211 210 228 247 205 188 189 164 171 193 203 199 196 194 193 191 187 183 182 181 183
289 287 280 271 273 261 239 219 198 197 206 211 232 232 241 230 220 203 192 193 242 216 176 218 184 207 208 200 200 197 197 193 189 186 182 178 178 181
278 278 282 275 266 260 271 270 246 229 209 200 218 231 231 223 205 206 205 204 218 205 169 215 205 218 220 209 198 196 196 194 189 187 186 185 183 186
275 263 259 267 259 246 246 259 261 253 238 229 224 234 233 228 211 207 205 207 236 217 172 196 206 216 222 204 205 198 196 192 191 188 186 185 185 187
287 284 267 264 270 254 233 248 265 269 261 240 235 238 238 229 207 181 179 179 216 228 194 178 188 193 214 234 217 200 194 192 191 188 186 185 187 184
286 291 280 270 280 261 233 237 251 259 258 264 257 262 255 244 220 207 199 193 191 214 204 173 175 158 202 248 205 191 185 191 190 188 184 181 176 164
266 273 274 274 273 268 254 242 248 249 241 235 244 254 258 248 243 225 211 199 198 215 194 168 174 173 177 195 223 197 179 175 175 181 185 182 179 169
257 259 263 272 272 268 262 258 260 251 233 228 234 241 240 240 239 232 218 208 205 208 190 175 178 179 172 178 209 201 178 176 171 176 177 177 177 177
264 264 267 271 274 269 261 261 262 241 222 228 233 236 234 230 223 223 231 211 202 217 189 180 170 169 172 184 186 184 182 198 183 176 175 177 183 170
278 278 276 271 265 260 265 260 244 231 226 230 234 234 226 218 216 206 209 212 206 262 335 177 175 167 178 182 177 187 183 184 185 182 172 178 187 184
286 290 282 278 270 260 258 254 245 237 237 234 228 229 226 222 226 212 199 206 206 211 214 216 98 128 153 168 177 191 183 184 183 176 166 178 210 203
278 269 265 258 257 253 250 251 245 237 234 233 228 224 224 221 222 219 208 208 215 213 205 192 164 131 73 344 190 182 184 186 181 175 171 179 211 225
261 264 263 259 258 250 246 243 242 239 231 229 231 230 226 223 216 215 212 211 216 215 211 192 183 179 197 228 250 206 186 182 170 178 187 188 207 219
260 262 265 265 263 256 249 247 244 239 232 230 230 231 225 221 218 214 215 215 214 210 210 205 200 198 204 209 204 225 197 182 179 185 186 161 168 253
267 266 265 266 267 262 256 250 246 240 234 230 228 227 226 223 223 219 215 215 216 212 211 216 215 192 163 134 153 209 241 206 189 185 176 165 171 182
266 267 267 265 263 259 257 254 248 244 240 236 230 224 221 221 223 219 215 214 222 219 218 213 182 167 170 193 205 203 201 197 142 161 182 186 180 192
267 266 266 265 263 258 255 251 247 244 237 236 233 225 218 219 221 219 217 214 216 212 206 197 186 185 193 196 199 201 192 187 175 155 271 263 215 211
Height
1517 1516 1516 1515 1515 1515 1515 1515 1516 1515 1515 1515 1515 1515 1515 1515 1516 1517 1517 1518 1519 1520 1521 1523 1524 1525 1527 1528 1529 1531 1533 1534 1536 1538 1540 1541 1542 1544
1517 1516 1515 1515 1514 1514 1514 1514 1514 1514 1514 1513 1514 1514 1514 1514 1514 1515 1515 1516 1517 1518 1519 1520 1522 1523 1524 1525 1527 1529 1530 1532 1534 1535 1537 1538 1539 1541
1516 1515 1514 1514 1513 1513 1513 1513 1513 1513 1512 1512 1512 1512 1512 1512 1513 1513 1514 1514 1515 1516 1517 1518 1519 1520 1521 1523 1524 1526 1528 1529 1531 1533 1534 1535 1537 1538
1515 1514 1513 1512 1512 1512 1511 1511 1511 1511 1511 1510 1510 1510 1510 1510 1511 1511 1511 1512 1513 1514 1515 1516 1517 1517 1519 1520 1521 1523 1525 1526 1528 1529 1531 1532 1533 1534
1514 1513 1512 1511 1510 1510 1510 1509 1509 1509 1509 1508 1508 1508 1508 1508 1509 1509 1509 1510 1511 1511 1512 1513 1514 1515 1516 1517 1518 1520 1522 1523 1524 1526 1527 1529 1530 1531
1513 1512 1511 1510 1509 1508 1508 1507 1507 1507 1507 1506 1506 1506 1506 1506 1506 1506 1507 1507 1508 1509 1509 1510 1511 1512 1513 1514 1515 1517 1518 1520 1521 1523 1524 1525 1526 1527
1511 1510 1509 1508 1508 1507 1506 1505 1505 1504 1504 1504 1503 1503 1503 1503 1504 1504 1504 1505 1505 1506 1506 1507 1508 1509 1510 1511 1512 1513 1515 1516 1518 1519 1520 1521 1522 1523
1509 1508 1507 1506 1505 1504 1504 1503 1503 1502 1501 1501 1500 1500 1500 1501 1501 1501 1501 1502 1502 1503 1503 1504 1505 1505 1506 1507 1508 1510 1511 1513 1514 1515 1516 1517 1518 1519
1506 1505 1504 1503 1503 1502 1501 1500 1500 1499 1499 1499 1498 1497 1497 1498 1498 1498 1498 1498 1499 1499 1500 1500 1501 1502 1503 1504 1505 1506 1507 1509 1510 1511 1513 1514 1515 1516
1503 1502 1501 1500 1499 1499 1498 1497 1496 1496 1495 1495 1494 1494 1494 1494 1494 1495 1495 1495 1496 1496 1497 1497 1497 1498 1499 1500 1501 1502 1504 1505 1506 1508 1509 1510 1511 1512
1500 1499 1498 1497 1496 1495 1494 1493 1492 1492 1491 1491 1491 1490 1490 1490 1490 1491 1491 1491 1491 1492 1493 1493 1494 1494 1495 1496 1497 1498 1499 1501 1502 1503 1505 1506 1507 1508
1496 1494 1494 1493 1492 1491 1490 1489 1488 1487 1487 1487 1486 1486 1486 1486 1486 1486 1486 1487 1487 1487 1488 1489 1490 1491 1491 1492 1493 1494 1495 1497 1498 1499 1501 1502 1503 1504
1491 1490 1489 1488 1487 1486 1485 1484 1483 1483 1482 1482 1482 1481 1481 1481 1481 1481 1481 1482 1482 1483 1484 1485 1485 1486 1487 1488 1489 1490 1491 1492 1494 1495 1497 1498 1499 1500
1486 1485 1484 1483 1482 1481 1480 1479 1479 1478 1477 1477 1476 1476 1476 1476 1476 1476 1476 1477 1477 1478 1479 1480 1480 1481 1483 1483 1485 1486 1487 1488 1489 1491 1492 1493 1494 1495
1481 1480 1479 1477 1476 1475 1474 1474 1473 1472 1471 1471 1470 1470 1471 1471 1471 1471 1472 1472 1473 1474 1475 1475 1476 1477 1478 1479 1480 1481 1482 1483 1485 1486 1487 1488 1490 1491
1475 1474 1472 1471 1470 1469 1468 1468 1467 1466 1466 1465 1465 1465 1466 1466 1466 1466 1467 1467 1468 1468 1470 1471 1472 1473 1474 1475 1476 1476 1478 1479 1480 1481 1483 1484 1486 1487
1469 1467 1465 1464 1463 1462 1462 1461 1460 1460 1459 1459 1459 1459 1459 1460 1460 1461 1461 1462 1462 1463 1464 1466 1467 1468 1469 1471 1471 1472 1474 1475 1476 1477 1478 1479 1481 1482
1463 1460 1459 1457 1456 1455 1455 1454 1454 1453 1453 1453 1453 1453 1453 1453 1454 1455 1455 1456 1456 1457 1458 1460 1462 1463 1464 1465 1467 1468 1469 1470 1472 1473 1474 1475 1476 1477
1457 1454 1452 1451 1450 1449 1448 1447 1446 1446 1446 1446 1446 1446 1446 1447 1448 1448 1449 1450 1450 1451 1452 1454 1456 1457 1458 1459 1461 1463 1464 1465 1466 1468 1469 1470 1471 1472
1450 1448 1446 1444 1443 1441 1440 1439 1439 1438 1438 1438 1438 1439 1439 1440 1440 1441 1442 1443 1444 1445 1446 1448 1449 1451 1452 1454 1455 1457 1459 1460 1461 1462 1463 1465 1466 1467
1443 1441 1439 1437 1435 1434 1433 1432 1431 1430 1430 1430 1430 1431 1431 1432 1433 1434 1435 1436 1437 1438 1439 1441 1443 1446 1447 1449 1450 1451 1453 1455 1456 1457 1458 1459 1460 1461
1435 1433 1431 1429 1427 1426 1424 1423 1423 1422 1421 1421 1421 1422 1423 1424 1425 1426 1427 1428 1430 1431 1433 1435 1437 1439 1440 1441 1442 1444 1447 1449 1451 1452 1454 1455 1454 1455
1428 1425 1423 1421 1419 1418 1416 1415 1414 1414 1413 1413 1413 1414 1415 1416 1417 1419 1420 1421 1423 1424 1426 1428 1430 1431 1433 1435 1437 1439 1441 1443 1445 1446 1448 1449 1450 1452